GW3838 Weather Reports


Display with metric or nautical units.
time (UTC)temp
F
wind
direction
speed
MPH
gust
MPH
rain 1hr
in
rain 24hr
in
rain mn
in
humidity
%
barometer
mb
20260505230533 79 151 8.0 10.0 0.00 0.00 0.00 52 1020.2
20260505230029 79 173 13.0 15.0 0.00 0.00 0.00 51 1020.1
20260505225526 79 173 7.0 9.0 0.00 0.00 0.00 49 1020.4
20260505225022 80 176 6.0 11.0 0.00 0.00 0.00 49 1020.4
20260505224519 81 184 8.0 10.0 0.00 0.00 0.00 47 1020.0
20260505224016 82 176 6.0 7.0 0.00 0.00 0.00 38 1020.4
20260505223513 82 197 4.0 6.0 0.00 0.00 0.00 36 1020.3
20260505223010 82 167 4.0 11.0 0.00 0.00 0.00 37 1020.2
20260505222506 82 196 8.0 10.0 0.00 0.00 0.00 37 1020.3
20260505222001 82 184 6.0 7.0 0.00 0.00 0.00 37 1020.3
20260505221459 82 209 3.0 6.0 0.00 0.00 0.00 37 1020.1
20260505220956 82 177 5.0 9.0 0.00 0.00 0.00 36 1020.1
20260505220453 82 121 4.0 9.0 0.00 0.00 0.00 37 1020.0
20260505215951 82 155 9.0 14.0 0.00 0.00 0.00 37 1020.0
20260505215449 83 175 8.0 9.0 0.00 0.00 0.00 36 1020.2
20260505214946 83 193 9.0 13.0 0.00 0.00 0.00 35 1020.1
20260505214444 83 224 4.0 8.0 0.00 0.00 0.00 35 1020.4
20260505213941 83 201 5.0 6.0 0.00 0.00 0.00 36 1020.3
20260505213439 83 193 5.0 8.0 0.00 0.00 0.00 36 1020.2
20260505212935 83 180 3.0 7.0 0.00 0.00 0.00 37 1020.3
20260505212432 83 198 7.0 9.0 0.00 0.00 0.00 37 1020.3
20260505211928 82 228 9.0 9.0 0.00 0.00 0.00 37 1020.5
20260505211426 83 248 4.0 5.0 0.00 0.00 0.00 36 1020.3
20260505210922 84 226 6.0 7.0 0.00 0.00 0.00 36 1020.4
20260505210419 84 261 5.0 7.0 0.00 0.00 0.00 36 1020.4
20260505205916 83 170 7.0 10.0 0.00 0.00 0.00 37 1020.4
20260505205414 83 159 7.0 10.0 0.00 0.00 0.00 36 1020.2
20260505204911 83 160 10.0 11.0 0.00 0.00 0.00 36 1020.4
20260505204408 82 190 5.0 13.0 0.00 0.00 0.00 37 1020.5
20260505203906 82 142 8.0 10.0 0.00 0.00 0.00 36 1020.7
20260505203402 82 156 5.0 9.0 0.00 0.00 0.00 37 1020.4
20260505202858 82 178 7.0 9.0 0.00 0.00 0.00 37 1020.4
20260505202355 83 168 7.0 10.0 0.00 0.00 0.00 36 1020.6
20260505201851 82 112 7.0 11.0 0.00 0.00 0.00 36 1020.7
20260505201349 83 166 9.0 14.0 0.00 0.00 0.00 36 1021.0
20260505200847 83 146 4.0 6.0 0.00 0.00 0.00 35 1020.8
20260505200344 84 197 7.0 9.0 0.00 0.00 0.00 35 1021.0
20260505195839 84 282 4.0 6.0 0.00 0.00 0.00 36 1021.1
20260505195336 82 114 1.0 2.0 0.00 0.00 0.00 35 1020.9
20260505194833 82 254 3.0 5.0 0.00 0.00 0.00 37 1021.4
20260505194331 83 232 9.0 14.0 0.00 0.00 0.00 35 1021.4
20260505193826 82 193 8.0 9.0 0.00 0.00 0.00 36 1021.4
20260505193324 82 181 6.0 8.0 0.00 0.00 0.00 37 1021.6
20260505192821 82 225 4.0 8.0 0.00 0.00 0.00 37 1021.7
20260505192320 81 149 5.0 8.0 0.00 0.00 0.00 38 1021.8
20260505191817 82 169 7.0 10.0 0.00 0.00 0.00 37 1021.6
20260505191315 82 174 7.0 11.0 0.00 0.00 0.00 37 1022.0
20260505190812 80 164 3.0 5.0 0.00 0.00 0.00 39 1021.9
20260505190307 80 228 3.0 7.0 0.00 0.00 0.00 40 1022.1
20260505185804 81 122 1.0 2.0 0.00 0.00 0.00 39 1022.0
20260505185300 80 115 5.0 8.0 0.00 0.00 0.00 41 1022.2
20260505184756 82 201 4.0 5.0 0.00 0.00 0.00 38 1022.1
20260505184253 82 154 5.0 10.0 0.00 0.00 0.00 38 1022.5
20260505183750 81 101 2.0 5.0 0.00 0.00 0.00 39 1022.3
20260505183248 82 137 4.0 8.0 0.00 0.00 0.00 39 1022.3
20260505182744 81 96 3.0 7.0 0.00 0.00 0.00 39 1022.4
20260505182240 81 192 8.0 13.0 0.00 0.00 0.00 40 1022.7
20260505181737 82 229 5.0 7.0 0.00 0.00 0.00 37 1022.4
20260505181235 81 189 4.0 6.0 0.00 0.00 0.00 39 1022.7
20260505180731 81 172 5.0 10.0 0.00 0.00 0.00 39 1022.5
20260505180228 80 193 6.0 7.0 0.00 0.00 0.00 40 1022.6
20260505175724 80 356 1.0 5.0 0.00 0.00 0.00 42 1022.6
20260505175221 80 165 5.0 6.0 0.00 0.00 0.00 41 1022.8
20260505174717 81 186 9.0 10.0 0.00 0.00 0.00 41 1022.8
20260505174214 81 159 8.0 10.0 0.00 0.00 0.00 41 1022.8
20260505173710 80 189 9.0 14.0 0.00 0.00 0.00 41 1022.8
20260505173207 80 172 8.0 13.0 0.00 0.00 0.00 41 1022.8
20260505172704 80 184 11.0 15.0 0.00 0.00 0.00 43 1022.9
20260505172201 81 183 5.0 7.0 0.00 0.00 0.00 43 1022.6
20260505171701 80 218 4.0 5.0 0.00 0.00 0.00 44 1022.7
20260505171158 80 181 9.0 11.0 0.00 0.00 0.00 43 1022.7
20260505170655 79 174 4.0 6.0 0.00 0.00 0.00 44 1022.8
20260505170152 78 154 1.0 7.0 0.00 0.00 0.00 43 1022.8
20260505165652 78 227 6.0 8.0 0.00 0.00 0.00 48 1023.1
20260505165148 78 177 1.0 6.0 0.00 0.00 0.00 46 1023.1
20260505164644 79 232 2.0 7.0 0.00 0.00 0.00 45 1023.0
20260505164141 78 189 8.0 11.0 0.00 0.00 0.00 43 1023.1
20260505163639 78 149 5.0 13.0 0.00 0.00 0.00 50 1023.2
20260505163137 78 188 2.0 5.0 0.00 0.00 0.00 47 1023.2
20260505162634 78 186 6.0 10.0 0.00 0.00 0.00 50 1023.4
20260505162132 78 189 10.0 11.0 0.00 0.00 0.00 51 1023.3
20260505161629 77 139 3.0 7.0 0.00 0.00 0.00 52 1023.2
20260505161126 77 153 3.0 9.0 0.00 0.00 0.00 51 1023.2
20260505160624 77 190 2.0 6.0 0.00 0.00 0.00 52 1023.3
20260505160121 77 199 5.0 10.0 0.00 0.00 0.00 52 1023.4
20260505153101 76 269 5.0 8.0 0.00 0.00 0.00 57 1023.9
20260505152557 76 195 5.0 7.0 0.00 0.00 0.00 57 1023.8
20260505152053 76 224 2.0 6.0 0.00 0.00 0.00 58 1023.9
20260505151548 76 252 5.0 7.0 0.00 0.00 0.00 58 1023.8
20260505151046 75 226 5.0 7.0 0.00 0.00 0.00 58 1024.0
20260505150542 76 228 4.0 8.0 0.00 0.00 0.00 58 1023.6
20260505140508 72 165 3.0 6.0 0.00 0.00 0.00 62 1023.5
20260505124921 67 178 5.0 8.0 0.00 0.00 0.00 75 1023.3
20260505124418 66 184 4.0 9.0 0.00 0.00 0.00 76 1023.3
20260505123914 66 210 5.0 8.0 0.00 0.00 0.00 77 1023.3
20260505123411 65 171 4.0 5.0 0.00 0.00 0.00 79 1023.1
20260505122906 64 186 3.0 3.0 0.00 0.00 0.00 82 1023.2
20260505122404 63 197 2.0 3.0 0.00 0.00 0.00 84 1023.4
20260505121901 63 219 4.0 6.0 0.00 0.00 0.00 86 1023.4
20260505121358 62 198 3.0 5.0 0.00 0.00 0.00 89 1023.3
20260505120853 61 167 1.0 2.0 0.00 0.00 0.00 91 1023.3
20260505120350 61 177 1.0 1.0 0.00 0.00 0.00 92 1023.1
20260505115848 60 177 0.0 0.0 0.00 0.00 0.00 94 1023.3
20260505115346 60 177 1.0 1.0 0.00 0.00 0.00 94 1023.2
20260505114843 60 177 0.0 0.0 0.00 0.00 0.00 96 1023.1
20260505114340 60 177 0.0 0.0 0.00 0.00 0.00 96 1023.1
20260505113836 58 177 0.0 0.0 0.00 0.00 0.00 97 1023.0
20260505113333 56 177 0.0 0.0 0.00 0.00 0.00 97 1023.1
20260505112829 55 177 0.0 1.0 0.00 0.00 0.00 96 1022.8
20260505112326 55 177 0.0 0.0 0.00 0.00 0.00 97 1023.0
20260505111822 53 177 0.0 0.0 0.00 0.00 0.00 97 1022.8
20260505111318 53 177 0.0 1.0 0.00 0.00 0.00 97 1022.6
20260505110814 52 177 0.0 0.0 0.00 0.00 0.00 97 1022.8
20260505110311 52 177 0.0 0.0 0.00 0.00 0.00 97 1022.5
20260505101746 52 179 0.0 0.0 0.00 0.00 0.00 96 1022.5
20260505101241 52 179 0.0 0.0 0.00 0.00 0.00 96 1022.4
20260505100738 52 179 0.0 1.0 0.00 0.00 0.00 96 1022.6
20260505100235 52 179 0.0 0.0 0.00 0.00 0.00 96 1022.5
20260505095730 52 179 0.0 0.0 0.00 0.00 0.00 96 1022.5
20260505095228 52 179 0.0 0.0 0.00 0.00 0.00 95 1022.4
20260505094723 52 179 0.0 0.0 0.00 0.00 0.00 95 1022.4
20260505094220 52 179 0.0 0.0 0.00 0.00 0.00 95 1022.4
20260505093716 52 179 0.0 0.0 0.00 0.00 0.00 95 1022.4
20260505093214 52 179 0.0 0.0 0.00 0.00 0.00 95 1022.2
20260505092710 52 179 0.0 0.0 0.00 0.00 0.00 95 1022.3
20260505092209 52 179 0.0 0.0 0.00 0.00 0.00 95 1022.4
20260505091706 52 179 0.0 0.0 0.00 0.00 0.00 95 1022.1
20260505091204 53 179 0.0 0.0 0.00 0.00 0.00 94 1022.1
20260505090701 53 179 0.0 0.0 0.00 0.00 0.00 94 1022.2
20260505090159 53 179 0.0 0.0 0.00 0.00 0.00 94 1022.1
20260505085656 53 179 0.0 0.0 0.00 0.00 0.00 94 1022.3
20260505085155 53 179 0.0 1.0 0.00 0.00 0.00 94 1022.0
20260505084652 53 179 0.0 1.0 0.00 0.00 0.00 94 1022.3
20260505084151 54 179 1.0 1.0 0.00 0.00 0.00 93 1022.1
20260505083648 54 179 0.0 0.0 0.00 0.00 0.00 93 1022.3
20260505083144 54 179 0.0 0.0 0.00 0.00 0.00 93 1022.2
20260505082640 54 179 0.0 0.0 0.00 0.00 0.00 93 1022.0
20260505082137 54 179 0.0 0.0 0.00 0.00 0.00 92 1022.1
20260505081633 54 179 0.0 0.0 0.00 0.00 0.00 92 1022.2
20260505081131 54 179 0.0 0.0 0.00 0.00 0.00 92 1022.0
20260505080627 54 179 0.0 0.0 0.00 0.00 0.00 92 1021.9
20260505080123 54 179 0.0 0.0 0.00 0.00 0.00 91 1021.8
20260505075620 55 179 0.0 0.0 0.00 0.00 0.00 91 1021.9
20260505075116 55 179 0.0 0.0 0.00 0.00 0.00 90 1021.9
20260505074613 55 179 1.0 1.0 0.00 0.00 0.00 90 1022.1
20260505074110 54 179 0.0 0.0 0.00 0.00 0.00 89 1022.0
20260505073608 55 179 0.0 0.0 0.00 0.00 0.00 89 1021.9
20260505073106 55 179 0.0 0.0 0.00 0.00 0.00 88 1022.0
20260505072607 55 179 0.0 0.0 0.00 0.00 0.00 88 1022.1
20260505072103 55 179 0.0 0.0 0.00 0.00 0.00 87 1021.8
20260505071559 56 179 0.0 0.0 0.00 0.00 0.00 87 1022.3
20260505071057 57 179 0.0 1.0 0.00 0.00 0.00 86 1021.8
20260505070554 57 179 0.0 1.0 0.00 0.00 0.00 86 1022.0
20260505070050 57 180 0.0 1.0 0.00 0.00 0.00 86 1022.2
20260505065546 57 180 0.0 1.0 0.00 0.00 0.00 86 1021.9
20260505065043 57 180 1.0 2.0 0.00 0.00 0.00 86 1022.2
20260505064540 57 179 1.0 1.0 0.00 0.00 0.00 86 1022.0
20260505064038 58 179 0.0 1.0 0.00 0.00 0.00 85 1022.1
20260505063535 58 180 0.0 1.0 0.00 0.00 0.00 85 1022.1
20260505063031 58 180 0.0 1.0 0.00 0.00 0.00 85 1022.3
20260505062528 57 176 1.0 1.0 0.00 0.00 0.00 86 1022.2
20260505062025 57 165 1.0 1.0 0.00 0.00 0.00 85 1022.2
20260505061523 57 165 1.0 1.0 0.00 0.00 0.00 84 1022.4
20260505061020 57 166 0.0 0.0 0.00 0.00 0.00 83 1022.4
20260505060518 58 166 0.0 0.0 0.00 0.00 0.00 82 1022.6
20260505060014 59 166 0.0 0.0 0.00 0.00 0.00 81 1022.4
20260505055509 59 166 0.0 0.0 0.00 0.00 0.00 79 1022.5
20260505055006 59 167 0.0 1.0 0.00 0.00 0.00 79 1022.6
20260505054504 60 176 1.0 2.0 0.00 0.00 0.00 78 1022.7
20260505054001 60 169 2.0 2.0 0.00 0.00 0.00 78 1022.8
20260505053458 60 175 1.0 1.0 0.00 0.00 0.00 77 1022.8
20260505052955 61 190 1.0 2.0 0.00 0.00 0.00 76 1022.8
20260505052452 61 184 1.0 2.0 0.00 0.00 0.00 76 1022.6
20260505051949 61 181 2.0 2.0 0.00 0.00 0.00 75 1022.8
20260505051446 62 190 3.0 5.0 0.00 0.00 0.00 74 1022.8
20260505050944 62 217 4.0 5.0 0.00 0.00 0.00 74 1022.9
20260505050442 62 202 2.0 5.0 0.00 0.00 0.00 73 1022.9
20260505041410 63 178 3.0 6.0 0.00 0.00 0.00 70 1023.1
20260505040907 63 171 4.0 5.0 0.00 0.00 0.00 70 1023.1
20260505040405 64 175 5.0 7.0 0.00 0.00 0.00 69 1022.9
20260505035901 63 168 4.0 6.0 0.00 0.00 0.00 70 1022.9
20260505035357 63 184 4.0 5.0 0.00 0.00 0.00 70 1023.0
20260505034855 64 166 3.0 6.0 0.00 0.00 0.00 69 1022.9
20260505034351 64 175 7.0 8.0 0.00 0.00 0.00 68 1023.0
20260505033848 64 162 5.0 6.0 0.00 0.00 0.00 68 1022.9
20260505033345 64 184 5.0 7.0 0.00 0.00 0.00 68 1023.0
20260505032843 64 195 5.0 8.0 0.00 0.00 0.00 67 1023.0
20260505032339 64 184 6.0 8.0 0.00 0.00 0.00 67 1023.1
20260505031836 64 164 5.0 6.0 0.00 0.00 0.00 66 1023.0
20260505031333 65 176 5.0 6.0 0.00 0.00 0.00 66 1023.0
20260505030830 65 178 5.0 7.0 0.00 0.00 0.00 66 1022.9
20260505030326 65 174 4.0 6.0 0.00 0.00 0.00 65 1022.9
20260505025822 65 163 4.0 6.0 0.00 0.00 0.00 65 1022.8
20260505025320 65 187 5.0 8.0 0.00 0.00 0.00 65 1022.9
20260505024818 65 162 6.0 8.0 0.00 0.00 0.00 64 1023.2
20260505024315 65 176 6.0 7.0 0.00 0.00 0.00 64 1023.0
20260505023812 66 168 5.0 8.0 0.00 0.00 0.00 63 1023.0
20260505023309 66 168 6.0 7.0 0.00 0.00 0.00 63 1023.0
20260505022806 66 167 6.0 7.0 0.00 0.00 0.00 62 1022.7
20260505022304 66 185 5.0 7.0 0.00 0.00 0.00 61 1022.6
20260505021800 66 194 4.0 6.0 0.00 0.00 0.00 61 1022.6
20260505021257 66 158 5.0 7.0 0.00 0.00 0.00 60 1022.6
20260505020753 67 178 7.0 8.0 0.00 0.00 0.00 59 1022.7
20260505020248 67 171 7.0 8.0 0.00 0.00 0.00 58 1022.6
20260505015746 67 182 6.0 10.0 0.00 0.00 0.00 57 1022.7
20260505015242 68 168 5.0 10.0 0.00 0.00 0.00 57 1022.8
20260505014739 67 157 8.0 10.0 0.00 0.00 0.00 56 1022.5
20260505014237 68 166 4.0 9.0 0.00 0.00 0.00 56 1022.4
20260505013733 68 150 7.0 11.0 0.00 0.00 0.00 55 1022.2
20260505013231 68 159 6.0 10.0 0.00 0.00 0.00 55 1022.2
20260505012729 68 169 5.0 8.0 0.00 0.00 0.00 54 1022.2
20260505012226 69 158 6.0 10.0 0.00 0.00 0.00 54 1022.2
20260505011721 69 157 7.0 11.0 0.00 0.00 0.00 53 1022.2
20260505011219 69 177 6.0 7.0 0.00 0.00 0.00 53 1022.0
20260505010714 69 173 6.0 10.0 0.00 0.00 0.00 53 1022.0
20260505010211 69 160 8.0 9.0 0.00 0.00 0.00 53 1021.8
20260505005707 69 172 7.0 8.0 0.00 0.00 0.00 52 1021.8
20260505005205 70 171 5.0 6.0 0.00 0.00 0.00 52 1021.7
20260505004702 70 165 9.0 13.0 0.00 0.00 0.00 51 1021.4
20260505004158 70 182 7.0 8.0 0.00 0.00 0.00 51 1021.6
20260505003655 71 160 6.0 11.0 0.00 0.00 0.00 51 1021.8
20260505003153 71 159 4.0 8.0 0.00 0.00 0.00 51 1021.8
20260505002649 71 170 7.0 9.0 0.00 0.00 0.00 50 1021.4
20260505002147 72 146 7.0 10.0 0.00 0.00 0.00 50 1021.5
20260505001643 72 173 10.0 11.0 0.00 0.00 0.00 50 1021.7
20260505001141 72 168 5.0 10.0 0.00 0.00 0.00 50 1021.7
20260505000638 72 164 7.0 11.0 0.00 0.00 0.00 50 1021.4
20260505000136 73 141 6.0 9.0 0.00 0.00 0.00 49 1021.4
20260504235632 73 169 7.0 9.0 0.00 0.00 0.00 48 1021.4
20260504235129 74 176 7.0 11.0 0.00 0.00 0.00 48 1021.3
20260504234626 74 178 9.0 11.0 0.00 0.00 0.00 47 1021.3
20260504234123 75 156 6.0 11.0 0.00 0.00 0.00 47 1021.2
20260504233619 75 166 7.0 11.0 0.00 0.00 0.00 45 1021.1
20260504233115 76 172 10.0 14.0 0.00 0.00 0.00 44 1021.0
20260504232613 77 194 6.0 9.0 0.00 0.00 0.00 39 1021.0
20260504232110 77 173 5.0 8.0 0.00 0.00 0.00 38 1021.0
20260504231606 77 219 7.0 9.0 0.00 0.00 0.00 37 1020.7
20260504231102 78 191 7.0 8.0 0.00 0.00 0.00 37 1020.7